Location: Burgberg
(50.1428°N, 11.0671°E)
Time: 09:44:20
(UTC+00:00)

BREEZE-M DEB (TANK) - Pass Details

Date: 26 January 2020
Orbit: 277 x 13110 km, 49.6° (Epoch: 25 February)

Event Time Altitude Azimuth Distance (km) Brightness Sun altitude
Exits shadow 04:58:54 37° 254° (WSW) 1,047 3.2 -19.0°
Maximum altitude 05:00:33 83° 171° (S) 878 3.2 -18.7°
Drops below altitude 10° 05:11:59 10° 85° (E) 5,463 8.6 -16.9°
Sets 05:19:55 0° 86° (E) 8,426 9.9 -15.6°
